Weather History for KAQV - September, 2013

Change the Weather History Date:

Monday, September 2, 2013

  Actual Average (KPOE) Record (KPOE)
Temperature  
Mean Temperature 87 °F -  
Max Temperature 99 °F 87 °F 104 °F (2000)
Min Temperature 75 °F 69 °F 66 °F (1996)
Cooling Degree Days 22    
Growing Degree Days 37 (Base 50)    
Moisture  
Dew Point 72 °F    
Average Humidity 76    
Maximum Humidity 97    
Minimum Humidity 34    
Precipitation  
Precipitation 0.27 in - - ()
Sea Level Pressure  
Sea Level Pressure 29.90 in    
Wind  
Wind Speed 3 mph (NNW)    
Max Wind Speed 10 mph    
Max Gust Speed 21 mph    
Visibility 9 miles    
Events Rain , Thunderstorm    
Averages and records for this station are not official NWS values.
T = Trace of Precipitation, MM = Missing Value Source: NWS Daily Summary

Daily Weather History Graph

Daily Weather History Graph

Search for Another Location

Airport or City:

Trip Planner

Search our weather history database for the weather conditions in past years. The results will help you decide how hot, cold, wet, or windy it might be!

Date:

Astronomy

Sep. 02, 2013 Rise Set
Actual Time 6:49 AM CDT 7:35 PM CDT
Civil Twilight 6:25 AM CDT 7:59 PM CDT
Nautical Twilight 5:55 AM CDT 8:28 PM CDT
Astronomical Twilight 5:26 AM CDT 8:58 PM CDT
Moon 4:13 AM CDT (9/2) 5:44 PM CDT (9/2)
Length of Visible Light 13h 34m
Length of Day
12h 45m
Waning Crescent, 8% of the Moon is Illuminated
Sep 2
Waning Crescent
Sep 5
New
Sep 12
First Quarter
Sep 19
Full
Sep 26
Last Quarter

Hourly Weather History & Observations

Time (CDT) Temp. Heat Index Dew Point Humidity Pressure Visibility Wind Dir Wind Speed Gust Speed Precip Events Conditions
12:56 AM 78.1 °F - 72.0 °F 81% 29.88 in 10.0 mi SSW 3.5 mph - N/A   Clear
1:56 AM 77.0 °F - 73.0 °F 88% 29.88 in 10.0 mi Calm Calm - N/A   Clear
2:56 AM 75.9 °F - 73.0 °F 91% 29.89 in 10.0 mi Calm Calm - N/A   Clear
3:56 AM 75.9 °F - 73.0 °F 91% 29.89 in 10.0 mi Calm Calm - N/A   Clear
4:56 AM 75.0 °F - 73.0 °F 94% 29.90 in 10.0 mi Calm Calm - N/A   Clear
5:56 AM 75.0 °F - 73.0 °F 94% 29.91 in 10.0 mi Calm Calm - N/A   Partly Cloudy
6:56 AM 75.0 °F - 73.9 °F 96% 29.92 in 10.0 mi Calm Calm - N/A   Mostly Cloudy
7:23 AM 75.2 °F - 73.4 °F 94% 29.94 in 10.0 mi West 3.5 mph - N/A   Partly Cloudy
7:56 AM 78.1 °F - 75.0 °F 90% 29.94 in 10.0 mi Variable 3.5 mph - N/A   Clear
8:56 AM 82.9 °F 90.2 °F 75.0 °F 77% 29.95 in 10.0 mi Variable 4.6 mph - N/A   Clear
9:56 AM 87.1 °F 94.5 °F 73.0 °F 63% 29.96 in 10.0 mi West 10.4 mph 16.1 mph N/A   Clear
10:56 AM 90.0 °F 96.4 °F 71.1 °F 54% 29.97 in 10.0 mi Variable 4.6 mph - N/A   Partly Cloudy
11:56 AM 93.0 °F 97.4 °F 68.0 °F 44% 29.95 in 10.0 mi Variable 5.8 mph - N/A   Partly Cloudy
12:56 PM 93.9 °F 97.0 °F 66.0 °F 40% 29.93 in 10.0 mi Variable 4.6 mph - N/A   Partly Cloudy
1:56 PM 97.0 °F 99.3 °F 64.0 °F 34% 29.90 in 10.0 mi Variable 3.5 mph - N/A   Scattered Clouds
2:56 PM 99.0 °F 102.9 °F 66.0 °F 34% 29.87 in 10.0 mi Variable 5.8 mph - N/A   Mostly Cloudy
3:56 PM 98.1 °F 101.2 °F 64.9 °F 34% 29.84 in 10.0 mi NE 5.8 mph - N/A   Overcast
4:41 PM 93.2 °F 96.2 °F 66.2 °F 41% 29.85 in 10.0 mi Calm Calm - 0.00 in Rain , Thunderstorm Light Thunderstorms and Rain
4:51 PM 78.8 °F - 73.4 °F 83% 29.88 in 1.5 mi North 9.2 mph 19.6 mph 0.20 in Rain Heavy Rain
4:56 PM 77.0 °F - 73.0 °F 88% 29.87 in 1.5 mi North 9.2 mph 17.3 mph 0.23 in Rain Heavy Rain
5:02 PM 78.8 °F - 71.6 °F 78% 29.87 in 3.0 mi NNE 9.2 mph 20.7 mph 0.03 in Rain Rain
5:56 PM 82.0 °F 87.9 °F 73.9 °F 76% 29.86 in 10.0 mi Calm Calm - 0.04 in Thunderstorm Thunderstorm
6:17 PM 82.4 °F 89.5 °F 75.2 °F 79% 29.87 in 10.0 mi Calm Calm - N/A   Scattered Clouds
6:56 PM 81.0 °F 86.7 °F 75.0 °F 82% 29.86 in 10.0 mi Calm Calm - N/A   Clear
7:56 PM 79.0 °F - 78.1 °F 97% 29.85 in 9.0 mi Calm Calm - N/A   Clear
8:56 PM 77.0 °F - 75.9 °F 96% 29.86 in 7.0 mi Calm Calm - N/A   Clear
9:56 PM 77.0 °F - 73.0 °F 88% 29.89 in 10.0 mi Calm Calm - N/A   Clear
10:56 PM 75.9 °F - 73.0 °F 91% 29.90 in 10.0 mi Calm Calm - N/A   Clear
11:56 PM 75.0 °F - 73.0 °F 94% 29.91 in 10.0 mi Calm Calm - N/A   Clear